CAPE
0 0 0 0 0 0 0 0 0 0 0 0 0 0 0 0 0 0 0 0 0 0
0 0 0 0 0 0 0 0 0 0 0 0 0 0 0 0 0 0 0 0 0 0
0 0 0 0 0 0 0 0 0 0 0 0 0 0 0 0 0 0 0 0 0 0
0 0 0 0 0 0 0 0 0 0 0 0 0 0 0 0 0 0 0 0 0 0
0 0 0 0 0 0 0 0 0 0 0 0 0 0 0 0 0 0 0 0 0 0
0 0 0 0 0 0 0 0 0 0 0 0 0 0 0 0 0 0 0 0 0 0
0 0 0 0 0 0 0 0 0 0 0 0 0 0 0 0 0 0 0 0 0 0
0 0 0 0 0 0 0 0 0 0 0 0 0 0 0 0 0 0 0 0 0 0
0 0 0 0 0 0 0 0 0 0 0 0 0 0 0 0 0 0 0 0 0 0
0 0 0 0 0 0 0 0 0 0 0 0 0 0 0 0 0 0 0 0 0 0
0 0 0 0 0 0 0 0 0 0 0 0 0 0 0 0 0 0 0 0 0 0
0 0 0 0 0 0 0 0 0 0 0 0 0 0 0 0 0 0 0 0 0 0
0 0 0 0 0 0 0 0 0 0 0 0 0 0 0 0 0 0 0 0 0 0
0 0 0 0 0 0 0 0 0 0 0 0 0 0 0 0 0 0 0 0 0 0
CIN
-0 -0 -0 -0 -0 -0 -0 -0 -0 -0 -0 -0 -0 -0 -0 -0 -0 -0 -0 -0 -0 -0
-0 -0 -0 -0 -0 -0 -0 -0 -0 -0 -0 -0 -0 -0 -0 -0 -0 -0 -0 -0 -0 -0
-0 -0 -0 -0 -0 -0 -0 -0 -0 -0 -0 -0 -0 -0 -0 -0 -0 -0 -0 -0 -0 -0
-0 -0 -0 -0 -0 -0 -0 -0 -0 -0 -0 -0 -0 -0 -0 -0 -0 -0 -0 -0 -0 -0
-0 -0 -0 -0 -0 -0 -0 -0 -0 -0 -0 -0 -0 -0 -0 -0 -0 -0 -0 -0 -0 -0
-0 -0 -0 -0 -0 -0 -0 -0 -0 -0 -0 -0 -0 -0 -0 -0 -0 -0 -0 -0 -0 -0
-0 -0 -0 -0 -0 -0 -0 -0 -0 -0 -0 -0 -0 -0 -0 -0 -0 -0 -0 -0 -0 -0
-0 -0 -0 -0 -0 -0 -0 -0 -0 -0 -0 -0 -0 -0 -0 -0 -0 -0 -0 -0 -0 -0
-0 -0 -0 -0 -0 -0 -0 -0 -0 -0 -0 -0 -0 -0 -0 -0 -0 -0 -0 -0 -0 -0
-0 -0 -0 -0 -0 -0 -0 -0 -0 -0 -0 -0 -0 -0 -0 -0 -0 -0 -0 -0 -0 -0
-0 -0 -0 -0 -0 -0 -0 -0 -0 -0 -0 -0 -0 -0 -0 -0 -0 -0 -0 -0 -0 -0
-0 -0 -0 -0 -0 -0 -0 -0 -0 -0 -0 -0 -0 -0 -0 -0 -0 -0 -0 -0 -0 -0
-0 -0 -0 -0 -0 -0 -0 -0 -0 -0 -0 -0 -0 -0 -0 -0 -0 -0 -0 -0 -0 -0
-0 -0 -0 -0 -0 -0 -0 -0 -0 -0 -0 -0 -0 -0 -0 -0 -0 -0 -0 -0 -0 -0
Wind_Speed
11 12 13 13 13 14 16 17 17 17 17 19 20 20 20 22 23 23 23 24 23 24
12 12 13 13 14 16 16 18 18 18 19 21 21 22 22 23 24 24 25 25 25 25
12 12 13 13 15 17 18 19 20 21 22 23 24 24 24 25 25 26 26 27 27 27
11 12 13 14 16 17 19 20 21 22 23 24 25 25 25 26 27 27 28 28 29 30
10 11 13 15 16 18 19 21 22 23 24 25 25 26 26 27 27 28 29 30 31 32
10 12 13 15 17 18 19 21 22 22 23 24 24 25 26 27 28 29 30 31 32 34
11 12 14 15 17 18 19 20 21 23 24 25 26 27 28 29 30 31 32 33 34 36
11 12 14 15 17 19 20 22 23 25 26 27 28 29 31 31 33 34 36 36 37 37
12 14 15 17 19 20 22 23 25 27 28 30 30 32 33 34 36 37 38 39 40 40
13 15 17 19 20 22 24 25 27 29 30 32 33 34 36 37 37 39 40 41 42 42
15 17 19 21 22 24 25 27 29 30 32 34 35 37 38 39 38 39 40 40 41 42
17 19 21 23 25 26 27 29 30 32 34 36 37 38 38 39 38 40 41 41 42 42
19 21 23 24 26 27 29 30 32 34 35 37 38 37 39 39 40 42 43 41 41 40
21 22 23 25 26 29 31 32 35 37 37 38 37 37 38 39 41 42 42 41 41 40
Wind_Direction
303 306 312 318 322 324 325 326 332 333 335 336 337 337 336 334 334 334 334 333 333 332
300 306 312 318 322 323 325 326 328 329 330 331 332 332 330 329 329 330 330 329 328 327
304 310 316 320 322 323 324 326 326 326 326 326 327 328 328 327 327 326 326 326 325 324
308 315 321 323 325 326 328 327 327 327 327 327 327 328 328 327 326 325 324 324 323 322
319 324 327 329 330 331 331 331 331 330 330 330 330 330 329 328 327 326 324 324 322 320
328 331 332 333 334 335 335 336 337 337 336 336 336 335 334 332 329 327 325 323 322 320
332 334 336 338 339 341 342 341 340 339 338 336 335 333 331 329 327 325 324 322 321 319
340 341 341 340 340 340 339 338 337 336 335 333 332 330 328 326 324 321 320 319 319 318
338 338 337 337 337 337 337 336 335 334 332 330 329 328 326 324 321 320 319 317 317 317
334 334 334 335 334 333 333 333 332 331 330 328 327 326 324 323 321 319 318 317 317 316
331 332 333 332 332 332 332 331 330 330 329 327 326 325 324 323 322 320 320 320 319 318
328 328 329 329 329 330 330 329 329 328 327 326 325 324 324 323 322 321 320 319 319 318
327 327 326 328 329 329 329 328 328 327 326 325 324 325 325 324 322 319 319 321 321 321
325 326 327 328 328 328 327 327 326 325 326 326 327 326 327 326 323 321 321 321 322 323